Location: Kerguer�zec
(48.4509°N, 4.7600°W)
Time: 04:19:30
(UTC+00:00)

Cosmos 2239 Rocket - Pass Details

Date: 09 April 2020
Orbit: 955 x 991 km, 82.9° (Epoch: 29 May)

Event Time Altitude Azimuth Distance (km) Brightness Sun altitude
Rises 21:55:49 0° 351° (N) 3,680 8.4 -25.2°
Reaches altitude 10° 21:58:20 10° 352° (N) 2,733 7.6 -25.5°
Maximum altitude 22:04:38 85° 82° (E) 992 4.4 -26.1°
Enters shadow 22:05:41 64° 161° (SSE) 1,083 4.4 -26.2°
